Location: Centerville
(32.8776°N, 96.6203°W)
Time: 01:26:09
(UTC+00:00)

Cosmos 2263 Rocket - Pass Details

Date: 17 June 2021
Orbit: 822 x 850 km, 71.0° (Epoch: 27 July)

Event Time Altitude Azimuth Distance (km) Brightness Sun altitude
Rises 03:37:32 0° 332° (NNW) 3,415 6.8 -20.7°
Reaches altitude 10° 03:40:03 10° 327° (NNW) 2,478 5.8 -21.0°
Maximum altitude 03:45:29 47° 255° (WSW) 1,106 2.9 -21.8°
Enters shadow 03:48:11 27° 197° (SSW) 1,563 3.3 -22.1°
